CDT,Max TemperatureF,Mean TemperatureF,Min TemperatureF,Max Dew PointF,MeanDew PointF,Min DewpointF,Max Humidity, Mean Humidity, Min Humidity, Max Sea Level PressureIn, Mean Sea Level PressureIn, Min Sea Level PressureIn, Max VisibilityMiles, Mean VisibilityMiles, Min VisibilityMiles, Max Wind SpeedMPH, Mean Wind SpeedMPH, Max Gust SpeedMPH,PrecipitationIn, CloudCover, Events, WindDirDegrees
2013-5-1,75,70,64,63,61,58,92,75,61,30.08,30.03,29.96,10,10,10,15,5,26,0.00,4,Rain,113
2013-5-2,76,68,61,61,59,55,86,72,58,30.10,30.05,30.02,10,10,9,18,10,23,0.01,6,Rain,103
2013-5-3,71,56,42,63,50,40,100,89,64,30.06,29.95,29.87,10,8,2,21,12,28,0.88,7,Rain-Thunderstorm,264
2013-5-4,65,51,37,48,40,36,100,80,35,30.02,29.96,29.90,10,8,1,15,5,,0.00,3,Rain,312
2013-5-5,55,50,45,48,46,44,95,87,73,29.95,29.90,29.83,10,10,8,15,7,,0.17,7,Rain,314
2013-5-6,62,52,43,59,54,43,100,89,72,29.96,29.90,29.86,10,10,4,14,7,16,0.16,7,Rain,254
2013-5-7,73,60,48,61,54,48,100,90,52,30.05,29.99,29.92,10,8,0,8,3,,0.01,4,Fog,321
2013-5-8,80,64,50,63,56,51,100,72,43,30.12,30.07,30.03,10,10,6,13,2,,0.00,1,,177
2013-5-9,84,68,54,63,60,54,100,74,46,30.14,30.07,30.03,10,10,10,7,1,,0.00,2,,188
2013-5-10,79,70,61,66,62,59,100,87,54,30.06,30.00,29.92,10,8,3,15,4,20,0.48,5,Rain-Thunderstorm,196
2013-5-11,76,67,56,66,63,54,100,89,59,30.07,29.98,29.94,10,9,1,12,3,,0.00,4,Rain,320
2013-5-12,69,60,51,56,43,36,100,58,29,30.21,30.15,30.06,10,10,9,15,6,21,0.00,0,,354
2013-5-13,74,58,41,52,43,36,96,63,31,30.31,30.24,30.18,10,10,10,7,2,,0.00,0,,144
2013-5-14,85,68,51,57,53,50,95,63,31,30.23,30.17,30.10,10,10,10,13,5,17,0.00,0,,197
2013-5-15,84,69,54,59,55,51,96,62,35,30.20,30.13,30.03,10,10,10,9,2,,0.00,0,,211
2013-5-16,78,70,63,63,61,59,93,67,54,30.06,30.00,29.95,10,10,10,12,3,,0.00,3,Rain,179
2013-5-17,73,70,67,73,69,64,100,98,87,30.02,29.97,29.93,10,7,0,15,3,,0.79,4,Fog-Rain-Thunderstorm,163
2013-5-18,83,76,68,73,70,68,100,94,66,30.06,30.00,29.94,10,9,2,10,2,17,0.17,4,Rain-Thunderstorm,208
2013-5-19,84,75,67,72,70,67,100,88,58,30.04,30.00,29.96,10,7,2,10,3,,0.00,2,,189
2013-5-20,88,78,69,72,70,68,100,83,50,30.06,30.00,29.93,10,9,4,9,3,,0.00,3,,189
2013-5-21,88,78,68,72,69,66,100,79,51,29.99,29.94,29.83,10,10,8,15,5,21,0.00,2,,181
2013-5-22,81,72,64,69,66,63,100,91,61,29.98,29.93,29.86,10,6,0,22,9,30,0.85,3,Fog-Rain-Thunderstorm,271
2013-5-23,85,72,60,68,63,61,100,91,46,30.08,29.98,29.94,10,4,0,13,1,17,0.01,0,Fog,307
2013-5-24,78,68,56,62,54,46,90,61,34,30.26,30.21,30.09,10,10,10,13,7,18,0.00,0,,16
2013-5-25,81,65,50,58,51,44,97,63,29,30.32,30.25,30.18,10,10,10,10,3,,0.00,0,,72
2013-5-26,86,70,54,61,57,52,100,66,31,30.25,30.18,30.13,10,10,10,10,2,,0.00,1,,147
2013-5-27,87,74,61,67,63,59,94,68,45,30.18,30.11,30.04,10,10,10,13,4,20,0.00,5,,147
2013-5-28,86,74,61,64,60,54,95,64,34,30.11,30.07,30.03,10,10,10,18,6,24,0.00,0,,169
2013-5-29,89,76,65,68,67,64,95,70,50,30.12,30.06,29.99,10,10,10,16,7,21,0.00,2,,163
2013-5-30,87,77,68,70,69,68,100,76,54,30.11,30.06,29.99,10,10,10,20,8,25,0.00,2,,162
2013-5-31,87,78,69,71,70,67,94,74,57,30.09,30.02,29.96,10,10,10,15,8,21,0.00,2,,174